{"data":{"norad_id":51133,"epoch":"2026-09-20T04:00:03.000096Z","epoch_age_seconds":78703,"freshness":"FRESH","line1":"1 51133U 22005AF  26263.16670139  .00171248  00000+0  24837-2 0  9992","line2":"2 51133  53.1578 128.3173 0001656  85.7510 143.6115 15.54765121  5927","mean_motion":15.54765121,"eccentricity":0.0001656,"inclination_deg":53.1578,"raan_deg":128.3173,"arg_perigee_deg":85.751,"mean_anomaly_deg":143.6115,"bstar":0.0024837,"rev_number":592,"period_min":92.618491407488,"perigee_km":401.71255054546,"apogee_km":403.9584086307,"semimajor_km":6780.9724795881,"source":"CELESTRAK","updated_at":"2026-09-20T09:00:39.589574Z"}}